Location: München
(48.1351°N, 11.5820°E)
Time: 16:30:32
(UTC+01:00)

ISS - Pass Details

Date: 30 January 2020
Orbit: 415 x 422 km, 51.6° (Epoch: 26 February)

Event Time Altitude Azimuth Distance (km) Brightness Sun altitude
Rises 18:26:12 0° 279° (W) 2,379 1.5 -12.9°
Reaches altitude 10° 18:28:22 10° 286° (WNW) 1,513 0.1 -13.3°
Maximum altitude 18:31:38 44° 0° (N) 600 -3.1 -13.8°
Enters shadow 18:33:07 26° 57° (ENE) 870 -2.7 -14.1°
